TimeCDT,TemperatureF,Dew PointF,Humidity,Sea Level PressureIn,VisibilityMPH,Wind Direction,Wind SpeedMPH,Gust SpeedMPH,PrecipitationIn,Events,Conditions,WindDirDegrees,DateUTC
12:53 AM,73.0,68.0,84,29.94,7.0,ENE,3.5,-,N/A,,Partly Cloudy,70,2013-06-17 05:53:00
1:53 AM,72.0,66.9,84,29.90,10.0,ESE,8.1,-,N/A,,Partly Cloudy,120,2013-06-17 06:53:00
2:04 AM,71.6,66.2,83,29.93,10.0,ESE,5.8,-,N/A,,Partly Cloudy,110,2013-06-17 07:04:00
2:53 AM,71.6,68.0,88,29.90,10.0,East,8.1,-,N/A,,Scattered Clouds,100,2013-06-17 07:53:00
3:53 AM,71.6,68.0,88,29.91,9.0,East,5.8,-,N/A,,Scattered Clouds,80,2013-06-17 08:53:00
4:49 AM,71.6,68.0,88,29.93,8.0,ESE,5.8,-,N/A,,Overcast,120,2013-06-17 09:49:00
4:53 AM,71.1,69.1,93,29.91,8.0,ESE,6.9,-,N/A,,Overcast,120,2013-06-17 09:53:00
5:00 AM,71.6,69.8,94,29.94,8.0,ESE,5.8,-,N/A,,Overcast,120,2013-06-17 10:00:00
5:53 AM,71.1,68.0,90,29.91,6.0,SSW,3.5,-,N/A,,Overcast,210,2013-06-17 10:53:00
6:08 AM,71.6,68.0,88,29.94,6.0,Calm,Calm,-,N/A,,Overcast,0,2013-06-17 11:08:00
6:53 AM,69.1,66.9,93,29.92,4.0,North,3.5,-,N/A,,Overcast,360,2013-06-17 11:53:00
7:53 AM,69.1,66.9,93,29.93,5.0,North,4.6,-,N/A,,Overcast,350,2013-06-17 12:53:00
8:16 AM,69.8,68.0,94,29.96,3.0,Calm,Calm,-,N/A,,Overcast,0,2013-06-17 13:16:00
8:53 AM,71.1,68.0,90,29.94,5.0,North,3.5,-,N/A,,Overcast,350,2013-06-17 13:53:00
9:53 AM,73.0,68.0,84,29.96,10.0,Calm,Calm,-,N/A,,Overcast,0,2013-06-17 14:53:00
10:10 AM,73.4,68.0,83,29.99,10.0,Calm,Calm,-,N/A,,Overcast,0,2013-06-17 15:10:00
10:53 AM,73.9,69.1,85,29.97,10.0,SW,5.8,-,N/A,,Overcast,230,2013-06-17 15:53:00
11:00 AM,73.4,69.8,88,30.00,10.0,SW,4.6,-,N/A,,Overcast,220,2013-06-17 16:00:00
11:42 AM,73.4,68.0,83,30.00,10.0,West,5.8,-,N/A,,Overcast,260,2013-06-17 16:42:00
11:53 AM,75.0,68.0,79,29.98,10.0,West,6.9,-,N/A,,Overcast,280,2013-06-17 16:53:00
11:56 AM,75.2,68.0,78,30.01,10.0,West,6.9,-,N/A,Thunderstorm,Thunderstorm,280,2013-06-17 16:56:00
12:29 PM,75.2,68.0,78,30.02,10.0,WNW,8.1,-,N/A,,Overcast,290,2013-06-17 17:29:00
12:53 PM,73.9,68.0,82,29.99,10.0,West,5.8,-,N/A,,Overcast,270,2013-06-17 17:53:00
1:24 PM,75.2,68.0,78,30.00,10.0,WSW,6.9,-,N/A,,Mostly Cloudy,250,2013-06-17 18:24:00
1:53 PM,77.0,69.1,76,29.97,10.0,Calm,Calm,-,N/A,,Mostly Cloudy,0,2013-06-17 18:53:00
2:53 PM,81.0,70.0,69,29.95,10.0,North,9.2,-,N/A,,Mostly Cloudy,360,2013-06-17 19:53:00
3:53 PM,82.0,66.9,60,29.94,10.0,NNE,8.1,-,N/A,,Mostly Cloudy,20,2013-06-17 20:53:00
4:53 PM,77.0,64.9,66,29.95,10.0,ESE,19.6,-,N/A,,Mostly Cloudy,120,2013-06-17 21:53:00
5:04 PM,78.8,66.2,65,29.98,10.0,SE,13.8,-,N/A,,Mostly Cloudy,140,2013-06-17 22:04:00
5:53 PM,78.1,64.9,64,29.93,10.0,SSE,4.6,-,N/A,,Scattered Clouds,160,2013-06-17 22:53:00
6:53 PM,82.0,66.0,58,29.91,10.0,North,3.5,-,N/A,,Scattered Clouds,350,2013-06-17 23:53:00
7:53 PM,79.0,66.9,66,29.92,10.0,North,4.6,-,N/A,,Partly Cloudy,360,2013-06-18 00:53:00
8:53 PM,73.9,66.0,76,29.92,10.0,North,5.8,-,N/A,,Partly Cloudy,360,2013-06-18 01:53:00
9:53 PM,73.9,66.0,76,29.94,10.0,North,4.6,-,N/A,,Clear,350,2013-06-18 02:53:00
10:53 PM,68.0,64.0,87,29.96,10.0,SSE,5.8,-,N/A,,Clear,160,2013-06-18 03:53:00
11:53 PM,69.1,66.0,90,29.96,10.0,South,3.5,-,N/A,,Clear,190,2013-06-18 04:53:00